STARLINK-35421, 66062

Orbit data source: Space-Track

STARLINK-35421, 66062 is a payload satellite owned by SpaceX/Seattle (US) in LEO that was launched on Sun, 19 Oct 2025 UTC via an FALCON 9 launch vehicle from the Air Force Eastern Test Range (AFETR). Payload-class satellites include a variety of spacecraft equipped with specific instruments for various scientific and technological missions. These include communications satellites like Starlink; space stations such as the ISS; scientific satellites like the Hubble; Earth observation satellites from companies like Planet Labs, Umbra, and HawkEye 360; GPS; miniature CubeSats for education and research; and military/defense satellites.

Loading next visibility...
Identifier
66062, 2025-235E
Orbit
LEO
Country
Flag of USUS
Related business
Manufacturer
SpaceX/Seattle
Mission
Operational spacecraft
Bus & Motor
STARLINK V2MO, Unknown motor
Mass
575 kg wet, ~530 kg dry
Launch date (UTC)
2025-10-19 (2 weeks ago)
Launch vehicle
FALCON 9
Launch site
Air Force Eastern Test Range (AFETR)
Object type
Payload
Rocket body
Debris
Shape & HBR
Unknown
Radar Cross Section
RCS unknown

Expand to show TLE details & history
Last TLE update: 8 hours ago

TLE from 8 hours ago
0 STARLINK-35421
1 66062U 25235E   25305.58335648 -.01500118  00000-0 -93571-2 0  9999
2 66062  53.1502 124.8056 0000719  99.2402 302.3117 15.79088902  3264
Epoch: 2025-11-01T14:00Z
TLE epoch observation values (Epoch: 2025-11-01T14:00:01.999Z)
Latitude
32.1572°
Longitude
-98.37581°
Altitude
334.822 km
Speed
7.712 km/s
True Right ascension
10h 10m 58s
True Declination
31° 59' 34"
Sunlit
Object was in daylight at epoch
Visualization orbit readout
Latitude
Unknown
Longitude
Unknown
Altitude
Unknown
Speed
Unknown
Apparent Right ascension
Unknown
Apparent Declination
Unknown
Sunlit
N/A
Visualization observer readout
Local Sidereal Time
17:26:30
Azimuth
Unknown
Elevation
Unknown
Doppler factor
Unknown
Orbital elements
Apogee altitude
333.767 km
Perigee altitude
332.802 km
Semi-major axis
6,711.421 km
Eccentricity
0.00007
Inclination
53.1502°
RAAN
124.8056°
Arg. of periapsis
99.2402°
True anomaly
302.30474°
Mean anomaly
302.3117°
Eccentric anomaly
302.30822°
Mean motion
3.94749 °/min
Orbital period
91.2 mins
BSTAR
-0.0093571
Loading maneuver chart data...
Computing Atmospheric mass density...
Loading historical data...
Loading historical data...
Loading historical data...
Loading historical data...
Loading historical data...
Loading historical data...
Loading historical data...

Documentation

Showing up to 5 results
|